Time,TemperatureF,DewpointF,PressureIn,WindDirection,WindDirectionDegrees,WindSpeedMPH,WindSpeedGustMPH,Humidity,HourlyPrecipIn,Conditions,Clouds,dailyrainin,SoftwareType,DateUTC
2013-01-02 00:00:00,19.2,10.6,30.42,SW,225,0.0,6.2,69,0.00,,,0.00,WUHU216HW,2013-01-02 05:00:00,
2013-01-02 00:02:00,19.2,10.6,30.42,SW,225,0.0,1.5,69,0.00,,,0.00,WUHU216HW,2013-01-02 05:02:00,
2013-01-02 00:03:00,19.2,10.6,30.42,SW,225,0.0,1.5,69,0.00,,,0.00,WUHU216HW,2013-01-02 05:03:00,
2013-01-02 00:08:00,19.2,10.6,30.42,SW,225,0.8,2.0,69,0.00,,,0.00,WUHU216HW,2013-01-02 05:08:00,
2013-01-02 00:13:00,19.2,10.6,30.42,WSW,248,0.0,6.7,69,0.00,,,0.00,WUHU216HW,2013-01-02 05:13:00,
2013-01-02 00:18:00,19.0,10.4,30.42,SW,225,0.0,6.7,69,0.00,,,0.00,WUHU216HW,2013-01-02 05:18:00,
2013-01-02 00:23:00,19.0,10.4,30.42,SW,225,0.0,1.1,69,0.00,,,0.00,WUHU216HW,2013-01-02 05:23:00,
2013-01-02 00:28:00,19.0,10.4,30.41,SW,225,0.0,1.1,69,0.00,,,0.00,WUHU216HW,2013-01-02 05:28:00,
2013-01-02 00:33:00,19.0,10.4,30.42,SW,225,0.0,0.0,69,0.00,,,0.00,WUHU216HW,2013-01-02 05:33:00,
2013-01-02 00:38:00,18.8,10.2,30.42,SW,225,0.0,0.0,69,0.00,,,0.00,WUHU216HW,2013-01-02 05:38:00,
2013-01-02 00:43:00,18.8,10.2,30.41,SW,225,0.0,0.0,69,0.00,,,0.00,WUHU216HW,2013-01-02 05:43:00,
2013-01-02 00:48:00,18.6,10.1,30.42,SW,225,1.5,1.5,69,0.00,,,0.00,WUHU216HW,2013-01-02 05:48:00,
2013-01-02 00:53:00,18.6,10.1,30.41,SW,225,0.0,1.5,69,0.00,,,0.00,WUHU216HW,2013-01-02 05:53:00,
2013-01-02 00:58:00,18.6,10.1,30.41,SW,225,0.0,0.0,69,0.00,,,0.00,WUHU216HW,2013-01-02 05:58:00,
2013-01-02 01:03:00,18.6,10.4,30.41,SW,225,0.0,0.0,70,0.00,,,0.00,WUHU216HW,2013-01-02 06:03:00,
2013-01-02 01:08:00,18.5,10.3,30.41,SW,225,0.0,0.0,70,0.00,,,0.00,WUHU216HW,2013-01-02 06:08:00,
2013-01-02 01:13:00,18.5,10.3,30.41,SW,225,0.0,0.0,70,0.00,,,0.00,WUHU216HW,2013-01-02 06:13:00,
2013-01-02 01:18:00,18.5,10.3,30.42,SW,225,0.0,0.0,70,0.00,,,0.00,WUHU216HW,2013-01-02 06:18:00,
2013-01-02 01:23:00,18.3,10.1,30.42,SW,225,0.0,1.1,70,0.00,,,0.00,WUHU216HW,2013-01-02 06:23:00,
2013-01-02 01:28:00,18.3,10.1,30.42,SW,225,0.0,1.1,70,0.00,,,0.00,WUHU216HW,2013-01-02 06:28:00,
2013-01-02 01:33:00,18.3,10.1,30.42,WSW,248,0.0,1.7,70,0.00,,,0.00,WUHU216HW,2013-01-02 06:33:00,
2013-01-02 01:38:00,18.3,10.1,30.42,WSW,248,0.0,1.7,70,0.00,,,0.00,WUHU216HW,2013-01-02 06:38:00,
2013-01-02 01:43:00,18.3,10.1,30.42,SW,225,0.0,1.5,70,0.00,,,0.00,WUHU216HW,2013-01-02 06:43:00,
2013-01-02 01:48:00,18.1,9.9,30.42,SW,225,0.0,0.0,70,0.00,,,0.00,WUHU216HW,2013-01-02 06:48:00,
2013-01-02 01:53:00,18.1,9.9,30.42,SW,225,0.0,0.0,70,0.00,,,0.00,WUHU216HW,2013-01-02 06:53:00,
2013-01-02 01:58:00,18.1,9.9,30.42,SW,225,0.0,0.0,70,0.00,,,0.00,WUHU216HW,2013-01-02 06:58:00,
2013-01-02 02:03:00,18.1,9.9,30.41,SW,225,0.0,0.0,70,0.00,,,0.00,WUHU216HW,2013-01-02 07:03:00,
2013-01-02 02:08:00,18.1,9.9,30.41,SW,225,0.0,0.0,70,0.00,,,0.00,WUHU216HW,2013-01-02 07:08:00,
2013-01-02 02:13:00,17.9,9.8,30.41,WSW,248,0.0,0.0,70,0.00,,,0.00,WUHU216HW,2013-01-02 07:13:00,
2013-01-02 02:18:00,17.9,10.1,30.42,WSW,248,0.0,0.0,71,0.00,,,0.00,WUHU216HW,2013-01-02 07:18:00,
2013-01-02 02:23:00,17.7,9.9,30.42,SW,225,0.0,0.0,71,0.00,,,0.00,WUHU216HW,2013-01-02 07:23:00,
2013-01-02 02:28:00,17.7,9.9,30.42,SW,225,0.0,0.0,71,0.00,,,0.00,WUHU216HW,2013-01-02 07:28:00,
2013-01-02 02:33:00,17.7,9.9,30.42,WSW,248,0.0,0.0,71,0.00,,,0.00,WUHU216HW,2013-01-02 07:33:00,
2013-01-02 02:38:00,17.4,9.6,30.42,SW,225,0.0,0.0,71,0.00,,,0.00,WUHU216HW,2013-01-02 07:38:00,
2013-01-02 02:43:00,17.4,9.6,30.43,SW,225,0.0,0.0,71,0.00,,,0.00,WUHU216HW,2013-01-02 07:43:00,
2013-01-02 02:48:00,17.4,9.6,30.42,SW,225,0.0,0.0,71,0.00,,,0.00,WUHU216HW,2013-01-02 07:48:00,
2013-01-02 02:53:00,17.4,9.6,30.43,SW,225,0.0,0.0,71,0.00,,,0.00,WUHU216HW,2013-01-02 07:53:00,
2013-01-02 02:58:00,17.2,9.4,30.43,SW,225,0.0,0.0,71,0.00,,,0.00,WUHU216HW,2013-01-02 07:58:00,
2013-01-02 03:03:00,17.2,9.4,30.43,SW,225,0.0,0.0,71,0.00,,,0.00,WUHU216HW,2013-01-02 08:03:00,
2013-01-02 03:08:00,16.8,9.0,30.43,SW,225,0.0,0.0,71,0.00,,,0.00,WUHU216HW,2013-01-02 08:08:00,
2013-01-02 03:13:00,16.8,9.0,30.43,SW,225,0.0,0.0,71,0.00,,,0.00,WUHU216HW,2013-01-02 08:13:00,
2013-01-02 03:18:00,16.8,9.3,30.43,SW,225,0.0,0.0,72,0.00,,,0.00,WUHU216HW,2013-01-02 08:18:00,
2013-01-02 03:23:00,16.8,9.3,30.43,SW,225,0.0,0.0,72,0.00,,,0.00,WUHU216HW,2013-01-02 08:23:00,
2013-01-02 03:28:00,16.8,9.3,30.43,SW,225,0.0,0.0,72,0.00,,,0.00,WUHU216HW,2013-01-02 08:28:00,
2013-01-02 03:33:00,16.8,9.3,30.44,SW,225,0.0,0.0,72,0.00,,,0.00,WUHU216HW,2013-01-02 08:33:00,
2013-01-02 03:38:00,16.8,9.6,30.43,SW,225,0.0,0.0,73,0.00,,,0.00,WUHU216HW,2013-01-02 08:38:00,
2013-01-02 03:43:00,16.8,9.6,30.43,SW,225,0.0,0.0,73,0.00,,,0.00,WUHU216HW,2013-01-02 08:43:00,
2013-01-02 03:48:00,16.8,9.6,30.43,SW,225,0.0,0.0,73,0.00,,,0.00,WUHU216HW,2013-01-02 08:48:00,
2013-01-02 03:53:00,16.8,9.6,30.44,SW,225,0.0,0.0,73,0.00,,,0.00,WUHU216HW,2013-01-02 08:53:00,
2013-01-02 03:58:00,16.8,9.6,30.44,SW,225,0.0,0.0,73,0.00,,,0.00,WUHU216HW,2013-01-02 08:58:00,
2013-01-02 04:03:00,16.8,9.6,30.43,SW,225,0.0,0.0,73,0.00,,,0.00,WUHU216HW,2013-01-02 09:03:00,
2013-01-02 04:08:00,16.8,9.6,30.44,SW,225,0.0,0.0,73,0.00,,,0.00,WUHU216HW,2013-01-02 09:08:00,
2013-01-02 04:13:00,16.8,9.6,30.43,SW,225,0.0,0.0,73,0.00,,,0.00,WUHU216HW,2013-01-02 09:13:00,
2013-01-02 04:18:00,16.8,9.6,30.43,WSW,248,0.0,0.0,73,0.00,,,0.00,WUHU216HW,2013-01-02 09:18:00,
2013-01-02 04:23:00,17.2,10.0,30.43,WSW,248,5.1,5.1,73,0.00,,,0.00,WUHU216HW,2013-01-02 09:23:00,
2013-01-02 04:28:00,17.2,10.0,30.44,SW,225,0.0,5.1,73,0.00,,,0.00,WUHU216HW,2013-01-02 09:28:00,
2013-01-02 04:33:00,17.2,10.0,30.44,WSW,248,0.0,5.1,73,0.00,,,0.00,WUHU216HW,2013-01-02 09:33:00,
2013-01-02 04:38:00,17.2,10.0,30.44,SW,225,0.0,0.0,73,0.00,,,0.00,WUHU216HW,2013-01-02 09:38:00,
2013-01-02 04:43:00,17.2,10.0,30.44,WSW,248,1.5,1.5,73,0.00,,,0.00,WUHU216HW,2013-01-02 09:43:00,
2013-01-02 04:48:00,17.2,10.0,30.44,SW,225,0.0,1.5,73,0.00,,,0.00,WUHU216HW,2013-01-02 09:48:00,
2013-01-02 04:53:00,17.4,10.4,30.44,SW,225,0.0,1.5,74,0.00,,,0.00,WUHU216HW,2013-01-02 09:53:00,
2013-01-02 04:58:00,17.4,10.1,30.43,SW,225,0.0,5.1,73,0.00,,,0.00,WUHU216HW,2013-01-02 09:58:00,
2013-01-02 05:03:00,17.4,10.1,30.44,WSW,248,3.3,5.1,73,0.00,,,0.00,WUHU216HW,2013-01-02 10:03:00,
2013-01-02 05:08:00,17.4,10.4,30.44,SW,225,0.0,3.3,74,0.00,,,0.00,WUHU216HW,2013-01-02 10:08:00,
2013-01-02 05:13:00,17.7,10.8,30.44,SW,225,0.0,0.0,74,0.00,,,0.00,WUHU216HW,2013-01-02 10:13:00,
2013-01-02 05:18:00,17.7,10.8,30.43,WSW,248,1.3,1.3,74,0.00,,,0.00,WUHU216HW,2013-01-02 10:18:00,
2013-01-02 05:23:00,17.7,10.8,30.43,WSW,248,0.0,1.3,74,0.00,,,0.00,WUHU216HW,2013-01-02 10:23:00,
2013-01-02 05:28:00,17.7,10.8,30.43,WSW,248,3.1,3.1,74,0.00,,,0.00,WUHU216HW,2013-01-02 10:28:00,
2013-01-02 05:33:00,17.9,10.9,30.44,SW,225,0.0,3.1,74,0.00,,,0.00,WUHU216HW,2013-01-02 10:33:00,
2013-01-02 05:38:00,18.1,11.1,30.43,SW,225,0.0,3.1,74,0.00,,,0.00,WUHU216HW,2013-01-02 10:38:00,
2013-01-02 05:43:00,18.1,11.1,30.43,SW,225,1.5,1.5,74,0.00,,,0.00,WUHU216HW,2013-01-02 10:43:00,
2013-01-02 05:48:00,18.3,11.3,30.43,WSW,248,0.0,1.5,74,0.00,,,0.00,WUHU216HW,2013-01-02 10:48:00,
2013-01-02 05:53:00,18.3,11.3,30.43,WSW,248,0.0,0.0,74,0.00,,,0.00,WUHU216HW,2013-01-02 10:53:00,
2013-01-02 05:58:00,18.3,11.3,30.43,SW,225,0.0,0.0,74,0.00,,,0.00,WUHU216HW,2013-01-02 10:58:00,
2013-01-02 06:03:00,18.3,11.3,30.44,SW,225,0.0,0.0,74,0.00,,,0.00,WUHU216HW,2013-01-02 11:03:00,
2013-01-02 06:08:00,18.5,11.4,30.43,SW,225,0.0,0.0,74,0.00,,,0.00,WUHU216HW,2013-01-02 11:08:00,
2013-01-02 06:13:00,18.5,11.4,30.44,SW,225,0.0,0.0,74,0.00,,,0.00,WUHU216HW,2013-01-02 11:13:00,
2013-01-02 06:18:00,18.6,11.6,30.44,SW,225,0.0,0.0,74,0.00,,,0.00,WUHU216HW,2013-01-02 11:18:00,
2013-01-02 06:23:00,18.6,11.6,30.44,SW,225,0.0,0.0,74,0.00,,,0.00,WUHU216HW,2013-01-02 11:23:00,
2013-01-02 06:28:00,18.8,11.8,30.44,WSW,248,0.0,0.0,74,0.00,,,0.00,WUHU216HW,2013-01-02 11:28:00,
2013-01-02 06:33:00,19.0,12.0,30.44,WSW,248,0.0,0.0,74,0.00,,,0.00,WUHU216HW,2013-01-02 11:33:00,
2013-01-02 06:38:00,19.0,12.0,30.45,SW,225,0.0,0.0,74,0.00,,,0.00,WUHU216HW,2013-01-02 11:38:00,
2013-01-02 06:43:00,19.0,12.0,30.45,SW,225,0.0,0.0,74,0.00,,,0.00,WUHU216HW,2013-01-02 11:43:00,
2013-01-02 06:48:00,19.2,12.1,30.44,WSW,248,0.0,0.0,74,0.00,,,0.00,WUHU216HW,2013-01-02 11:48:00,
2013-01-02 06:53:00,19.2,12.1,30.45,SW,225,0.0,0.0,74,0.00,,,0.00,WUHU216HW,2013-01-02 11:53:00,
2013-01-02 06:58:00,19.2,12.1,30.45,SW,225,0.0,0.0,74,0.00,,,0.00,WUHU216HW,2013-01-02 11:58:00,
2013-01-02 07:03:00,19.2,12.1,30.45,SW,225,0.0,0.0,74,0.00,,,0.00,WUHU216HW,2013-01-02 12:03:00,
2013-01-02 07:08:00,19.5,12.5,30.45,SW,225,0.0,0.0,74,0.00,,,0.00,WUHU216HW,2013-01-02 12:08:00,
2013-01-02 07:13:00,19.5,12.5,30.45,SW,225,0.0,0.0,74,0.00,,,0.00,WUHU216HW,2013-01-02 12:13:00,
2013-01-02 07:18:00,19.5,12.5,30.45,SW,225,0.0,0.0,74,0.00,,,0.00,WUHU216HW,2013-01-02 12:18:00,
2013-01-02 07:23:00,19.5,12.5,30.45,SW,225,0.0,0.0,74,0.00,,,0.00,WUHU216HW,2013-01-02 12:23:00,
2013-01-02 07:28:00,19.5,12.5,30.45,SW,225,0.0,0.0,74,0.00,,,0.00,WUHU216HW,2013-01-02 12:28:00,
2013-01-02 07:33:00,19.5,12.5,30.45,SW,225,0.0,0.0,74,0.00,,,0.00,WUHU216HW,2013-01-02 12:33:00,
2013-01-02 07:38:00,19.7,12.7,30.46,SW,225,0.0,0.0,74,0.00,,,0.00,WUHU216HW,2013-01-02 12:38:00,
2013-01-02 07:43:00,19.9,12.8,30.46,SW,225,0.0,0.0,74,0.00,,,0.00,WUHU216HW,2013-01-02 12:43:00,
2013-01-02 07:48:00,19.9,12.8,30.46,SW,225,0.0,0.0,74,0.00,,,0.00,WUHU216HW,2013-01-02 12:48:00,
2013-01-02 07:53:00,19.9,12.8,30.46,SW,225,0.0,0.0,74,0.00,,,0.00,WUHU216HW,2013-01-02 12:53:00,
2013-01-02 07:58:00,19.9,12.8,30.46,SW,225,0.0,0.0,74,0.00,,,0.00,WUHU216HW,2013-01-02 12:58:00,
2013-01-02 08:03:00,20.1,13.0,30.46,SW,225,0.0,0.0,74,0.00,,,0.00,WUHU216HW,2013-01-02 13:03:00,
2013-01-02 08:08:00,20.1,13.0,30.45,SW,225,0.0,0.0,74,0.00,,,0.00,WUHU216HW,2013-01-02 13:08:00,
2013-01-02 08:13:00,20.1,13.0,30.46,SW,225,0.0,0.0,74,0.00,,,0.00,WUHU216HW,2013-01-02 13:13:00,
2013-01-02 08:18:00,20.3,13.2,30.46,SW,225,0.0,0.0,74,0.00,,,0.00,WUHU216HW,2013-01-02 13:18:00,
2013-01-02 08:23:00,20.3,13.2,30.47,SW,225,0.0,0.0,74,0.00,,,0.00,WUHU216HW,2013-01-02 13:23:00,
2013-01-02 08:28:00,20.4,13.4,30.46,SW,225,0.0,0.0,74,0.00,,,0.00,WUHU216HW,2013-01-02 13:28:00,
2013-01-02 08:33:00,20.4,13.4,30.46,SW,225,0.0,0.0,74,0.00,,,0.00,WUHU216HW,2013-01-02 13:33:00,
2013-01-02 08:38:00,20.4,13.4,30.47,SW,225,0.0,0.0,74,0.00,,,0.00,WUHU216HW,2013-01-02 13:38:00,
2013-01-02 08:43:00,20.6,13.6,30.47,SW,225,0.0,0.0,74,0.00,,,0.00,WUHU216HW,2013-01-02 13:43:00,
2013-01-02 08:48:00,20.8,13.7,30.47,SW,225,0.0,0.0,74,0.00,,,0.00,WUHU216HW,2013-01-02 13:48:00,
2013-01-02 08:53:00,20.8,13.7,30.47,SW,225,0.0,0.0,74,0.00,,,0.00,WUHU216HW,2013-01-02 13:53:00,
2013-01-02 08:58:00,21.0,13.9,30.47,SW,225,0.0,0.0,74,0.00,,,0.00,WUHU216HW,2013-01-02 13:58:00,
2013-01-02 09:03:00,21.0,13.9,30.47,SW,225,0.0,0.0,74,0.00,,,0.00,WUHU216HW,2013-01-02 14:03:00,
2013-01-02 09:08:00,21.0,13.9,30.47,SW,225,0.0,0.0,74,0.00,,,0.00,WUHU216HW,2013-01-02 14:08:00,
2013-01-02 09:13:00,21.2,14.1,30.47,SW,225,0.0,0.0,74,0.00,,,0.00,WUHU216HW,2013-01-02 14:13:00,
2013-01-02 09:18:00,21.3,14.3,30.47,SW,225,0.0,0.0,74,0.00,,,0.00,WUHU216HW,2013-01-02 14:18:00,
2013-01-02 09:23:00,21.3,14.3,30.48,SW,225,0.0,0.0,74,0.00,,,0.00,WUHU216HW,2013-01-02 14:23:00,
2013-01-02 09:28:00,21.5,14.5,30.48,SW,225,0.0,0.0,74,0.00,,,0.00,WUHU216HW,2013-01-02 14:28:00,
2013-01-02 09:33:00,21.7,14.6,30.47,SW,225,0.0,0.0,74,0.00,,,0.00,WUHU216HW,2013-01-02 14:33:00,
2013-01-02 09:38:00,21.7,14.6,30.48,SW,225,0.0,0.0,74,0.00,,,0.00,WUHU216HW,2013-01-02 14:38:00,
2013-01-02 09:43:00,21.7,14.6,30.48,SW,225,0.0,0.0,74,0.00,,,0.00,WUHU216HW,2013-01-02 14:43:00,
2013-01-02 09:48:00,21.9,14.8,30.48,SW,225,0.0,0.0,74,0.00,,,0.00,WUHU216HW,2013-01-02 14:48:00,
2013-01-02 09:53:00,21.9,14.8,30.48,SW,225,0.0,0.0,74,0.00,,,0.00,WUHU216HW,2013-01-02 14:53:00,
2013-01-02 09:58:00,21.9,14.8,30.48,SW,225,0.0,0.0,74,0.00,,,0.00,WUHU216HW,2013-01-02 14:58:00,
2013-01-02 10:03:00,22.1,15.0,30.48,WSW,248,6.2,6.2,74,0.00,,,0.00,WUHU216HW,2013-01-02 15:03:00,
2013-01-02 10:08:00,22.1,15.0,30.49,SW,225,4.9,6.2,74,0.00,,,0.00,WUHU216HW,2013-01-02 15:08:00,
2013-01-02 10:13:00,22.2,15.2,30.49,WSW,248,4.4,5.1,74,0.00,,,0.00,WUHU216HW,2013-01-02 15:13:00,
2013-01-02 10:18:00,22.2,15.2,30.50,WSW,248,5.3,5.5,74,0.00,,,0.00,WUHU216HW,2013-01-02 15:18:00,
2013-01-02 10:23:00,22.2,15.2,30.50,WSW,248,4.6,6.9,74,0.00,,,0.00,WUHU216HW,2013-01-02 15:23:00,
2013-01-02 10:28:00,22.2,15.2,30.50,WSW,248,4.0,6.9,74,0.00,,,0.00,WUHU216HW,2013-01-02 15:28:00,
2013-01-02 10:33:00,22.4,15.4,30.50,WSW,248,2.4,4.6,74,0.00,,,0.00,WUHU216HW,2013-01-02 15:33:00,
2013-01-02 10:38:00,22.4,15.4,30.51,WSW,248,6.0,6.0,74,0.00,,,0.00,WUHU216HW,2013-01-02 15:38:00,
2013-01-02 10:43:00,22.6,15.5,30.51,SW,225,8.7,8.7,74,0.00,,,0.00,WUHU216HW,2013-01-02 15:43:00,
2013-01-02 10:48:00,22.6,15.5,30.51,WSW,248,5.8,8.7,74,0.00,,,0.00,WUHU216HW,2013-01-02 15:48:00,
2013-01-02 10:53:00,22.8,15.7,30.51,SW,225,2.0,8.7,74,0.00,,,0.00,WUHU216HW,2013-01-02 15:53:00,
2013-01-02 10:58:00,22.8,15.7,30.51,WSW,248,5.3,6.2,74,0.00,,,0.00,WUHU216HW,2013-01-02 15:58:00,
2013-01-02 11:03:00,22.8,15.7,30.51,SW,225,2.0,5.3,74,0.00,,,0.00,WUHU216HW,2013-01-02 16:03:00,
2013-01-02 11:08:00,22.8,15.7,30.51,SW,225,0.0,5.8,74,0.00,,,0.00,WUHU216HW,2013-01-02 16:08:00,
2013-01-02 11:13:00,23.0,15.9,30.51,SW,225,8.2,8.2,74,0.00,,,0.00,WUHU216HW,2013-01-02 16:13:00,
2013-01-02 11:18:00,23.0,15.9,30.51,WSW,248,6.9,8.2,74,0.00,,,0.00,WUHU216HW,2013-01-02 16:18:00,
2013-01-02 11:23:00,23.1,16.1,30.51,WSW,248,8.9,8.9,74,0.00,,,0.00,WUHU216HW,2013-01-02 16:23:00,
2013-01-02 11:28:00,23.1,16.1,30.51,SW,225,5.1,8.9,74,0.00,,,0.00,WUHU216HW,2013-01-02 16:28:00,
2013-01-02 11:33:00,23.3,16.2,30.50,SW,225,5.5,8.9,74,0.00,,,0.00,WUHU216HW,2013-01-02 16:33:00,
2013-01-02 11:38:00,23.5,16.4,30.51,SW,225,2.2,5.5,74,0.00,,,0.00,WUHU216HW,2013-01-02 16:38:00,
2013-01-02 11:43:00,23.5,16.4,30.51,SW,225,5.8,8.2,74,0.00,,,0.00,WUHU216HW,2013-01-02 16:43:00,
2013-01-02 11:48:00,23.5,16.4,30.50,SW,225,3.8,8.2,74,0.00,,,0.00,WUHU216HW,2013-01-02 16:48:00,
2013-01-02 11:53:00,23.5,16.4,30.50,SW,225,9.8,9.8,74,0.00,,,0.00,WUHU216HW,2013-01-02 16:53:00,
2013-01-02 11:58:00,23.5,16.4,30.50,WSW,248,5.5,9.8,74,0.00,,,0.00,WUHU216HW,2013-01-02 16:58:00,
2013-01-02 12:03:00,23.7,16.6,30.51,SW,225,6.0,9.8,74,0.00,,,0.00,WUHU216HW,2013-01-02 17:03:00,
2013-01-02 12:08:00,23.9,16.7,30.51,WSW,248,6.0,6.0,74,0.00,,,0.00,WUHU216HW,2013-01-02 17:08:00,
2013-01-02 12:13:00,23.7,16.6,30.51,WSW,248,1.5,6.0,74,0.00,,,0.00,WUHU216HW,2013-01-02 17:13:00,
2013-01-02 12:18:00,23.7,16.6,30.51,WSW,248,5.8,6.0,74,0.00,,,0.00,WUHU216HW,2013-01-02 17:18:00,
2013-01-02 12:23:00,23.9,16.7,30.50,WSW,248,3.1,6.0,74,0.00,,,0.00,WUHU216HW,2013-01-02 17:23:00,
2013-01-02 12:28:00,23.9,16.7,30.50,SW,225,1.7,6.0,74,0.00,,,0.00,WUHU216HW,2013-01-02 17:28:00,
2013-01-02 12:33:00,24.0,16.9,30.50,WSW,248,6.0,6.0,74,0.00,,,0.00,WUHU216HW,2013-01-02 17:33:00,
2013-01-02 12:38:00,24.0,16.9,30.50,WSW,248,3.5,6.4,74,0.00,,,0.00,WUHU216HW,2013-01-02 17:38:00,
2013-01-02 12:43:00,24.0,16.9,30.50,SW,225,5.3,6.4,74,0.00,,,0.00,WUHU216HW,2013-01-02 17:43:00,
2013-01-02 12:48:00,24.0,16.9,30.50,WSW,248,4.9,5.5,74,0.00,,,0.00,WUHU216HW,2013-01-02 17:48:00,
2013-01-02 12:53:00,24.4,16.9,30.49,WSW,248,1.7,5.8,73,0.00,,,0.00,WUHU216HW,2013-01-02 17:53:00,
2013-01-02 12:58:00,24.4,16.9,30.49,SW,225,0.6,5.8,73,0.00,,,0.00,WUHU216HW,2013-01-02 17:58:00,
2013-01-02 13:03:00,24.4,16.9,30.49,SW,225,5.8,8.5,73,0.00,,,0.00,WUHU216HW,2013-01-02 18:03:00,
2013-01-02 13:08:00,24.6,17.1,30.49,SW,225,6.4,8.5,73,0.00,,,0.00,WUHU216HW,2013-01-02 18:08:00,
2013-01-02 13:13:00,24.6,16.8,30.49,SW,225,4.9,6.4,72,0.00,,,0.00,WUHU216HW,2013-01-02 18:13:00,
2013-01-02 13:18:00,24.6,16.8,30.49,WSW,248,4.4,6.4,72,0.00,,,0.00,WUHU216HW,2013-01-02 18:18:00,
2013-01-02 13:23:00,24.9,17.1,30.50,WSW,248,3.3,6.7,72,0.00,,,0.00,WUHU216HW,2013-01-02 18:23:00,
2013-01-02 13:28:00,24.9,17.1,30.49,WSW,248,4.0,6.7,72,0.00,,,0.00,WUHU216HW,2013-01-02 18:28:00,
2013-01-02 13:33:00,24.9,17.1,30.49,WSW,248,0.0,5.8,72,0.00,,,0.00,WUHU216HW,2013-01-02 18:33:00,
2013-01-02 13:38:00,24.9,17.1,30.49,SW,225,0.8,4.0,72,0.00,,,0.00,WUHU216HW,2013-01-02 18:38:00,
2013-01-02 13:43:00,24.9,17.1,30.49,SW,225,0.0,0.8,72,0.00,,,0.00,WUHU216HW,2013-01-02 18:43:00,
2013-01-02 13:48:00,25.1,17.0,30.49,SW,225,0.0,0.8,71,0.00,,,0.00,WUHU216HW,2013-01-02 18:48:00,
2013-01-02 13:53:00,24.9,16.8,30.49,SW,225,1.7,1.7,71,0.00,,,0.00,WUHU216HW,2013-01-02 18:53:00,
2013-01-02 13:58:00,25.1,17.0,30.49,SW,225,0.4,1.7,71,0.00,,,0.00,WUHU216HW,2013-01-02 18:58:00,
2013-01-02 14:03:00,25.1,17.0,30.49,SW,225,0.0,1.7,71,0.00,,,0.00,WUHU216HW,2013-01-02 19:03:00,
2013-01-02 14:08:00,25.3,17.1,30.49,SW,225,0.0,0.4,71,0.00,,,0.00,WUHU216HW,2013-01-02 19:08:00,
2013-01-02 14:13:00,25.3,17.1,30.49,SW,225,0.0,0.0,71,0.00,,,0.00,WUHU216HW,2013-01-02 19:13:00,
2013-01-02 14:18:00,25.3,17.1,30.49,SW,225,0.0,0.0,71,0.00,,,0.00,WUHU216HW,2013-01-02 19:18:00,
2013-01-02 14:23:00,25.3,17.1,30.49,SW,225,0.0,0.0,71,0.00,,,0.00,WUHU216HW,2013-01-02 19:23:00,
2013-01-02 14:28:00,25.1,17.0,30.49,SW,225,0.0,0.0,71,0.00,,,0.00,WUHU216HW,2013-01-02 19:28:00,
2013-01-02 14:33:00,25.3,17.1,30.49,SW,225,0.0,0.0,71,0.00,,,0.00,WUHU216HW,2013-01-02 19:33:00,
2013-01-02 14:38:00,25.3,17.1,30.48,SW,225,0.0,0.0,71,0.00,,,0.00,WUHU216HW,2013-01-02 19:38:00,
2013-01-02 14:43:00,25.3,17.1,30.48,SW,225,0.0,0.0,71,0.00,,,0.00,WUHU216HW,2013-01-02 19:43:00,
2013-01-02 14:48:00,25.3,17.1,30.48,SW,225,0.0,0.0,71,0.00,,,0.00,WUHU216HW,2013-01-02 19:48:00,
2013-01-02 14:53:00,25.3,17.1,30.48,SW,225,0.0,0.0,71,0.00,,,0.00,WUHU216HW,2013-01-02 19:53:00,
2013-01-02 14:58:00,25.3,17.1,30.48,SW,225,0.0,0.0,71,0.00,,,0.00,WUHU216HW,2013-01-02 19:58:00,
2013-01-02 15:03:00,25.3,17.1,30.49,SW,225,0.0,0.0,71,0.00,,,0.00,WUHU216HW,2013-01-02 20:03:00,
2013-01-02 15:08:00,25.3,17.5,30.48,SW,225,0.0,0.0,72,0.00,,,0.00,WUHU216HW,2013-01-02 20:08:00,
2013-01-02 15:13:00,25.3,17.5,30.49,SW,225,0.0,0.0,72,0.00,,,0.00,WUHU216HW,2013-01-02 20:13:00,
2013-01-02 15:18:00,25.3,17.5,30.49,SW,225,0.0,0.0,72,0.00,,,0.00,WUHU216HW,2013-01-02 20:18:00,
2013-01-02 15:23:00,25.1,17.0,30.49,SW,225,0.0,0.0,71,0.00,,,0.00,WUHU216HW,2013-01-02 20:23:00,
2013-01-02 15:28:00,25.1,17.3,30.49,SW,225,0.0,0.0,72,0.00,,,0.00,WUHU216HW,2013-01-02 20:28:00,
2013-01-02 15:33:00,25.1,17.3,30.49,SW,225,0.0,0.0,72,0.00,,,0.00,WUHU216HW,2013-01-02 20:33:00,
2013-01-02 15:38:00,25.1,17.3,30.49,SW,225,0.0,0.0,72,0.00,,,0.00,WUHU216HW,2013-01-02 20:38:00,
2013-01-02 15:43:00,24.9,16.8,30.49,SW,225,0.0,0.0,71,0.00,,,0.00,WUHU216HW,2013-01-02 20:43:00,
2013-01-02 15:48:00,24.9,16.8,30.48,SW,225,0.0,0.0,71,0.00,,,0.00,WUHU216HW,2013-01-02 20:48:00,
2013-01-02 15:53:00,24.9,17.1,30.48,SW,225,0.0,0.0,72,0.00,,,0.00,WUHU216HW,2013-01-02 20:53:00,
2013-01-02 15:58:00,24.8,16.9,30.49,SW,225,0.0,0.0,72,0.00,,,0.00,WUHU216HW,2013-01-02 20:58:00,
2013-01-02 16:03:00,24.9,17.1,30.48,SW,225,0.0,0.0,72,0.00,,,0.00,WUHU216HW,2013-01-02 21:03:00,
2013-01-02 16:08:00,24.9,17.1,30.48,SW,225,0.0,0.0,72,0.00,,,0.00,WUHU216HW,2013-01-02 21:08:00,
2013-01-02 16:13:00,24.9,17.1,30.49,SW,225,0.0,0.0,72,0.00,,,0.00,WUHU216HW,2013-01-02 21:13:00,
2013-01-02 16:18:00,24.9,17.1,30.49,SW,225,0.0,0.0,72,0.00,,,0.00,WUHU216HW,2013-01-02 21:18:00,
2013-01-02 16:23:00,24.9,17.1,30.50,SW,225,0.0,0.0,72,0.00,,,0.00,WUHU216HW,2013-01-02 21:23:00,
2013-01-02 16:28:00,24.9,17.1,30.50,SW,225,0.0,0.0,72,0.00,,,0.00,WUHU216HW,2013-01-02 21:28:00,
2013-01-02 16:33:00,24.9,17.1,30.50,SW,225,0.0,0.0,72,0.00,,,0.00,WUHU216HW,2013-01-02 21:33:00,
2013-01-02 16:38:00,24.9,17.1,30.50,SW,225,0.0,0.0,72,0.00,,,0.00,WUHU216HW,2013-01-02 21:38:00,
2013-01-02 16:43:00,24.9,17.1,30.50,SW,225,0.0,0.0,72,0.00,,,0.00,WUHU216HW,2013-01-02 21:43:00,
2013-01-02 16:48:00,24.9,17.1,30.50,SW,225,0.0,0.0,72,0.00,,,0.00,WUHU216HW,2013-01-02 21:48:00,
2013-01-02 16:53:00,24.6,16.8,30.50,SW,225,0.0,0.0,72,0.00,,,0.00,WUHU216HW,2013-01-02 21:53:00,
2013-01-02 16:58:00,24.6,16.8,30.50,SW,225,0.0,0.0,72,0.00,,,0.00,WUHU216HW,2013-01-02 21:58:00,
2013-01-02 17:03:00,24.6,16.8,30.50,SW,225,0.0,0.0,72,0.00,,,0.00,WUHU216HW,2013-01-02 22:03:00,
2013-01-02 17:08:00,24.6,16.8,30.50,SW,225,0.0,0.0,72,0.00,,,0.00,WUHU216HW,2013-01-02 22:08:00,
2013-01-02 17:13:00,24.6,16.8,30.50,SW,225,0.0,0.0,72,0.00,,,0.00,WUHU216HW,2013-01-02 22:13:00,
2013-01-02 17:18:00,24.6,16.8,30.50,SW,225,0.0,0.0,72,0.00,,,0.00,WUHU216HW,2013-01-02 22:18:00,
2013-01-02 17:23:00,24.6,16.8,30.50,SW,225,0.0,0.0,72,0.00,,,0.00,WUHU216HW,2013-01-02 22:23:00,
2013-01-02 17:28:00,24.6,16.8,30.50,SW,225,0.0,0.0,72,0.00,,,0.00,WUHU216HW,2013-01-02 22:28:00,
2013-01-02 17:33:00,24.6,16.8,30.50,SW,225,0.0,0.0,72,0.00,,,0.00,WUHU216HW,2013-01-02 22:33:00,
2013-01-02 17:38:00,24.6,17.1,30.50,SW,225,0.0,0.0,73,0.00,,,0.00,WUHU216HW,2013-01-02 22:38:00,
2013-01-02 17:43:00,24.6,16.8,30.50,SW,225,0.0,0.0,72,0.00,,,0.00,WUHU216HW,2013-01-02 22:43:00,
2013-01-02 17:48:00,24.6,16.8,30.50,SW,225,0.0,0.0,72,0.00,,,0.00,WUHU216HW,2013-01-02 22:48:00,
2013-01-02 17:53:00,24.6,16.8,30.50,SW,225,0.0,0.0,72,0.00,,,0.00,WUHU216HW,2013-01-02 22:53:00,
2013-01-02 17:58:00,24.6,17.1,30.50,SW,225,0.0,0.0,73,0.00,,,0.00,WUHU216HW,2013-01-02 22:58:00,
2013-01-02 18:03:00,24.4,16.9,30.50,SW,225,0.0,0.0,73,0.00,,,0.00,WUHU216HW,2013-01-02 23:03:00,
2013-01-02 18:08:00,24.6,17.1,30.50,SW,225,0.0,0.0,73,0.00,,,0.00,WUHU216HW,2013-01-02 23:08:00,
2013-01-02 18:13:00,24.4,16.9,30.50,SW,225,0.0,0.0,73,0.00,,,0.00,WUHU216HW,2013-01-02 23:13:00,
2013-01-02 18:18:00,24.6,17.1,30.50,SW,225,0.0,0.0,73,0.00,,,0.00,WUHU216HW,2013-01-02 23:18:00,
2013-01-02 18:23:00,24.4,16.9,30.50,SW,225,0.0,0.0,73,0.00,,,0.00,WUHU216HW,2013-01-02 23:23:00,
2013-01-02 18:28:00,24.4,16.9,30.50,SW,225,0.0,0.0,73,0.00,,,0.00,WUHU216HW,2013-01-02 23:28:00,
2013-01-02 18:33:00,24.4,16.9,30.50,SW,225,0.0,0.0,73,0.00,,,0.00,WUHU216HW,2013-01-02 23:33:00,
2013-01-02 18:38:00,24.4,16.9,30.51,SW,225,0.0,0.0,73,0.00,,,0.00,WUHU216HW,2013-01-02 23:38:00,
2013-01-02 18:43:00,24.4,16.9,30.51,SW,225,0.0,0.0,73,0.00,,,0.00,WUHU216HW,2013-01-02 23:43:00,
2013-01-02 18:48:00,24.4,16.9,30.51,SW,225,0.0,0.0,73,0.00,,,0.00,WUHU216HW,2013-01-02 23:48:00,
2013-01-02 18:53:00,24.4,16.9,30.51,SW,225,0.0,0.0,73,0.00,,,0.00,WUHU216HW,2013-01-02 23:53:00,
2013-01-02 18:58:00,24.4,16.9,30.51,SW,225,0.0,0.0,73,0.00,,,0.00,WUHU216HW,2013-01-02 23:58:00,
2013-01-02 19:03:00,24.4,16.9,30.51,SW,225,0.0,0.0,73,0.00,,,0.00,WUHU216HW,2013-01-03 00:03:00,
2013-01-02 19:08:00,24.4,16.9,30.51,SW,225,0.0,0.0,73,0.00,,,0.00,WUHU216HW,2013-01-03 00:08:00,
2013-01-02 19:13:00,24.4,16.9,30.51,SW,225,0.0,0.0,73,0.00,,,0.00,WUHU216HW,2013-01-03 00:13:00,
2013-01-02 19:18:00,24.4,16.9,30.51,SW,225,0.0,0.0,73,0.00,,,0.00,WUHU216HW,2013-01-03 00:18:00,
2013-01-02 19:23:00,24.4,17.2,30.51,SW,225,0.0,0.0,74,0.00,,,0.00,WUHU216HW,2013-01-03 00:23:00,
2013-01-02 19:28:00,24.4,17.2,30.51,SW,225,0.0,0.0,74,0.00,,,0.00,WUHU216HW,2013-01-03 00:28:00,
2013-01-02 19:34:00,24.4,17.2,30.51,SW,225,0.0,0.0,74,0.00,,,0.00,WUHU216HW,2013-01-03 00:34:00,
2013-01-02 19:39:00,24.4,17.2,30.51,SW,225,0.0,0.0,74,0.00,,,0.00,WUHU216HW,2013-01-03 00:39:00,
2013-01-02 19:44:00,24.4,17.2,30.51,SW,225,0.0,0.0,74,0.00,,,0.00,WUHU216HW,2013-01-03 00:44:00,
2013-01-02 19:49:00,24.4,17.2,30.51,SW,225,0.0,0.0,74,0.00,,,0.00,WUHU216HW,2013-01-03 00:49:00,
2013-01-02 19:54:00,24.4,17.2,30.51,SW,225,0.0,0.0,74,0.00,,,0.00,WUHU216HW,2013-01-03 00:54:00,
2013-01-02 19:59:00,24.4,17.2,30.51,SSW,203,0.0,0.0,74,0.00,,,0.00,WUHU216HW,2013-01-03 00:59:00,
2013-01-02 20:04:00,24.4,17.2,30.51,SSW,203,0.0,0.0,74,0.00,,,0.00,WUHU216HW,2013-01-03 01:04:00,
2013-01-02 20:09:00,24.4,17.2,30.51,SSW,203,0.0,0.0,74,0.00,,,0.00,WUHU216HW,2013-01-03 01:09:00,
2013-01-02 20:14:00,24.4,17.6,30.51,SSW,203,0.0,0.0,75,0.00,,,0.00,WUHU216HW,2013-01-03 01:14:00,
2013-01-02 20:19:00,24.4,17.6,30.51,SSW,203,0.0,0.0,75,0.00,,,0.00,WUHU216HW,2013-01-03 01:19:00,
2013-01-02 20:24:00,24.4,17.6,30.51,SSW,203,0.0,0.0,75,0.00,,,0.00,WUHU216HW,2013-01-03 01:24:00,
2013-01-02 20:29:00,24.4,17.6,30.50,SSW,203,0.0,0.0,75,0.00,,,0.00,WUHU216HW,2013-01-03 01:29:00,
2013-01-02 20:34:00,24.4,17.6,30.50,SSW,203,0.0,0.0,75,0.00,,,0.00,WUHU216HW,2013-01-03 01:34:00,
2013-01-02 20:39:00,24.6,17.7,30.50,SSW,203,0.0,0.0,75,0.00,,,0.00,WUHU216HW,2013-01-03 01:39:00,
2013-01-02 20:44:00,24.6,17.7,30.49,SSW,203,0.0,0.0,75,0.00,,,0.00,WUHU216HW,2013-01-03 01:44:00,
2013-01-02 20:49:00,24.6,17.7,30.49,SSW,203,0.0,0.0,75,0.00,,,0.00,WUHU216HW,2013-01-03 01:49:00,
2013-01-02 20:54:00,24.6,17.7,30.49,SSW,203,0.0,0.0,75,0.00,,,0.00,WUHU216HW,2013-01-03 01:54:00,
2013-01-02 20:59:00,24.4,17.6,30.49,SSW,203,0.0,0.0,75,0.00,,,0.00,WUHU216HW,2013-01-03 01:59:00,
2013-01-02 21:04:00,24.4,17.6,30.49,SSW,203,0.0,0.0,75,0.00,,,0.00,WUHU216HW,2013-01-03 02:04:00,
2013-01-02 21:09:00,24.4,17.6,30.49,SSW,203,0.0,0.0,75,0.00,,,0.00,WUHU216HW,2013-01-03 02:09:00,
2013-01-02 21:14:00,24.4,17.6,30.49,SSW,203,0.0,0.0,75,0.00,,,0.00,WUHU216HW,2013-01-03 02:14:00,
2013-01-02 21:19:00,24.4,17.6,30.49,SSW,203,0.0,0.0,75,0.00,,,0.00,WUHU216HW,2013-01-03 02:19:00,
2013-01-02 21:24:00,24.4,17.6,30.49,SSW,203,0.0,0.0,75,0.00,,,0.00,WUHU216HW,2013-01-03 02:24:00,
2013-01-02 21:29:00,24.4,17.6,30.48,SSW,203,0.0,0.0,75,0.00,,,0.00,WUHU216HW,2013-01-03 02:29:00,
2013-01-02 21:34:00,24.4,17.6,30.48,SSW,203,0.0,0.0,75,0.00,,,0.00,WUHU216HW,2013-01-03 02:34:00,
2013-01-02 21:39:00,24.4,17.6,30.48,SSW,203,0.0,0.0,75,0.00,,,0.00,WUHU216HW,2013-01-03 02:39:00,
2013-01-02 21:44:00,24.4,17.6,30.48,SSW,203,0.0,0.0,75,0.00,,,0.00,WUHU216HW,2013-01-03 02:44:00,
2013-01-02 21:49:00,24.4,17.6,30.48,SSW,203,0.0,0.0,75,0.00,,,0.00,WUHU216HW,2013-01-03 02:49:00,
2013-01-02 21:54:00,24.4,17.6,30.48,SSW,203,0.0,0.0,75,0.00,,,0.00,WUHU216HW,2013-01-03 02:54:00,
2013-01-02 21:59:00,24.4,17.9,30.48,SSW,203,0.0,0.0,76,0.00,,,0.00,WUHU216HW,2013-01-03 02:59:00,
2013-01-02 22:04:00,24.4,17.9,30.48,SSW,203,0.0,0.0,76,0.00,,,0.00,WUHU216HW,2013-01-03 03:04:00,
2013-01-02 22:09:00,24.6,18.1,30.48,SSW,203,0.0,0.0,76,0.00,,,0.00,WUHU216HW,2013-01-03 03:09:00,
2013-01-02 22:14:00,24.4,17.9,30.48,SSW,203,0.0,0.0,76,0.00,,,0.00,WUHU216HW,2013-01-03 03:14:00,
2013-01-02 22:19:00,24.6,18.1,30.47,SSW,203,0.0,0.0,76,0.00,,,0.00,WUHU216HW,2013-01-03 03:19:00,
2013-01-02 22:24:00,24.6,18.1,30.47,SSW,203,0.0,0.0,76,0.00,,,0.00,WUHU216HW,2013-01-03 03:24:00,
2013-01-02 22:29:00,24.6,18.1,30.47,WSW,248,0.0,0.0,76,0.00,,,0.00,WUHU216HW,2013-01-03 03:29:00,
2013-01-02 22:35:00,24.6,18.1,30.47,WSW,248,0.0,0.0,76,0.00,,,0.00,WUHU216HW,2013-01-03 03:35:00,
2013-01-02 22:40:00,24.6,18.4,30.47,WSW,248,0.0,0.0,77,0.00,,,0.00,WUHU216HW,2013-01-03 03:40:00,
2013-01-02 22:45:00,24.6,18.4,30.47,WSW,248,0.0,0.0,77,0.00,,,0.00,WUHU216HW,2013-01-03 03:45:00,
2013-01-02 22:50:00,24.6,18.4,30.47,SSW,203,0.0,0.0,77,0.00,,,0.00,WUHU216HW,2013-01-03 03:50:00,
2013-01-02 22:55:00,24.6,18.4,30.46,SSW,203,0.0,0.0,77,0.00,,,0.00,WUHU216HW,2013-01-03 03:55:00,
2013-01-02 23:00:00,24.6,18.4,30.46,SSW,203,0.0,0.0,77,0.00,,,0.00,WUHU216HW,2013-01-03 04:00:00,
2013-01-02 23:05:00,24.6,18.4,30.47,South,180,0.0,0.0,77,0.00,,,0.00,WUHU216HW,2013-01-03 04:05:00,
2013-01-02 23:10:00,24.6,18.4,30.46,South,180,0.0,0.0,77,0.00,,,0.00,WUHU216HW,2013-01-03 04:10:00,
2013-01-02 23:15:00,24.8,18.6,30.46,South,180,0.0,0.0,77,0.00,,,0.00,WUHU216HW,2013-01-03 04:15:00,
2013-01-02 23:20:00,24.9,18.7,30.47,South,180,0.0,0.0,77,0.00,,,0.00,WUHU216HW,2013-01-03 04:20:00,
2013-01-02 23:25:00,24.9,18.7,30.47,South,180,0.0,0.0,77,0.00,,,0.00,WUHU216HW,2013-01-03 04:25:00,
2013-01-02 23:30:00,24.9,19.0,30.46,South,180,0.0,0.0,78,0.00,,,0.00,WUHU216HW,2013-01-03 04:30:00,
2013-01-02 23:35:00,24.9,19.0,30.46,South,180,0.0,0.0,78,0.00,,,0.00,WUHU216HW,2013-01-03 04:35:00,
2013-01-02 23:40:00,25.1,19.2,30.46,SSE,158,0.0,0.0,78,0.00,,,0.00,WUHU216HW,2013-01-03 04:40:00,
2013-01-02 23:45:00,25.1,19.2,30.46,SW,225,0.0,0.0,78,0.00,,,0.00,WUHU216HW,2013-01-03 04:45:00,
2013-01-02 23:50:00,25.3,19.4,30.47,SSW,203,0.0,0.0,78,0.00,,,0.00,WUHU216HW,2013-01-03 04:50:00,
2013-01-02 23:55:00,25.3,19.4,30.47,SW,225,0.0,0.0,78,0.00,,,0.00,WUHU216HW,2013-01-03 04:55:00,